EW5345 Cavalaire Sur Mer FR current weather conditions

sailwx.info

Wind from 202 at 1 knots gusting 2

Air temperature 31.7° C
Dewpoint 18.9° C

Last reported at 2020-Aug-09 08:02 UTC.
Time now 2020-Aug-09 08:33 UTC

Location: N 43°10' E 006°32'.
View on Google Maps.

See reports from other nearby stations

  
Tides and Currents Weather Stations Pressure Air Temp Water Temp Dewpoint Dewpoint Depression Visibility Wind Speed Wind Dir Waves Ship Positions
date/time (UTC)wind fromknots sea level pressurealtimeterstation pressurevisibilityair tempwater tempwave heightnotes
2020-Aug-09 08:02 202 1 gusting 2 31.7
2020-Aug-09 07:46 208 1 gusting 3 31.7
2020-Aug-09 07:31 211 0 gusting 3 31.1
2020-Aug-09 07:16 212 0 gusting 2 31.1
2020-Aug-09 07:01 213 30.6
2020-Aug-09 06:46 218 29.4
2020-Aug-09 06:30 218 27.8
2020-Aug-09 06:15 218 25.6
2020-Aug-09 06:00 218 23.3
2020-Aug-09 05:46 217 22.2
2020-Aug-09 05:31 217 21.1
2020-Aug-09 05:15 217 20.6
2020-Aug-09 05:00 217 20.6
2020-Aug-09 04:47 217 20.0
2020-Aug-09 04:31 217 20.0
2020-Aug-09 04:16 217 20.0
2020-Aug-09 04:01 217 20.0
2020-Aug-09 03:46 217 20.6
2020-Aug-09 03:31 217 20.6
2020-Aug-09 03:15 217 20.6
2020-Aug-09 03:00 217 20.6
2020-Aug-09 02:46 217 20.6
2020-Aug-09 02:30 217 20.6
2020-Aug-09 02:15 217 20.6
2020-Aug-09 02:00 217 21.1
2020-Aug-09 01:45 217 21.1
2020-Aug-09 01:30 217 20.6
2020-Aug-09 01:15 217 21.1
2020-Aug-09 01:00 217 21.1
2020-Aug-09 00:45 217 21.1
2020-Aug-09 00:30 217 21.1
2020-Aug-09 00:15 216 21.1
2020-Aug-09 00:00 216 21.1
2020-Aug-08 23:45 216 21.7
2020-Aug-08 23:31 217 21.7
2020-Aug-08 23:15 216 21.7
2020-Aug-08 23:00 216 21.7
2020-Aug-08 22:45 216 22.2
2020-Aug-08 22:30 216 0 gusting 2 22.2
2020-Aug-08 22:15 183 22.2
2020-Aug-08 22:02 183 22.8
2020-Aug-08 21:48 183 22.8
2020-Aug-08 21:32 182 22.8
2020-Aug-08 21:02 182 23.3
2020-Aug-08 20:46 182 22.8
2020-Aug-08 20:31 182 23.3
2020-Aug-08 20:17 182 23.3
2020-Aug-08 20:01 182 23.3
2020-Aug-08 19:46 182 23.9
2020-Aug-08 19:31 182 24.4
2020-Aug-08 19:16 182 25.0
2020-Aug-08 19:01 265 25.0
2020-Aug-08 18:46 224 25.6
2020-Aug-08 18:31 223 25.6
2020-Aug-08 18:16 224 2 gusting 4 25.6
2020-Aug-08 18:02 223 1 gusting 5 26.1
2020-Aug-08 17:46 223 1 gusting 6 26.7
2020-Aug-08 17:32 205 1 gusting 6 27.2
2020-Aug-08 17:16 219 3 gusting 6 28.3
2020-Aug-08 17:01 191 2 gusting 6 28.9
2020-Aug-08 16:45 210 1 gusting 6 28.9
2020-Aug-08 16:31 195 3 gusting 6 28.9
2020-Aug-08 16:16 227 2 gusting 6 30.0
2020-Aug-08 16:01 196 2 gusting 6 30.0
2020-Aug-08 15:46 215 2 gusting 6 29.4
2020-Aug-08 15:31 175 4 gusting 8 29.4
2020-Aug-08 15:16 184 3 gusting 8 29.4
2020-Aug-08 15:01 224 4 gusting 7 29.4
2020-Aug-08 14:45 164 4 gusting 8 28.9
2020-Aug-08 14:30 220 5 gusting 8 30.0
2020-Aug-08 14:15 168 3 gusting 9 30.6
2020-Aug-08 14:00 226 3 gusting 7 31.1
2020-Aug-08 13:45 225 3 gusting 8 32.2
2020-Aug-08 13:31 221 5 gusting 12 31.7
2020-Aug-08 13:15 222 3 gusting 8 31.1
2020-Aug-08 13:00 221 3 gusting 10 31.7
2020-Aug-08 12:45 230 3 gusting 10 30.0
2020-Aug-08 12:30 217 2 gusting 8 31.1
2020-Aug-08 12:15 182 3 gusting 8 30.0
2020-Aug-08 12:00 211 2 gusting 10 30.0
2020-Aug-08 11:46 214 1 gusting 7 31.7
2020-Aug-08 11:30 202 4 gusting 9 30.0
2020-Aug-08 11:15 217 4 gusting 8 30.6
2020-Aug-08 11:00 225 4 gusting 8 30.6
2020-Aug-08 10:45 223 4 gusting 9 30.0
2020-Aug-08 10:30 216 4 gusting 8 30.0
2020-Aug-08 10:15 235 3 gusting 6 31.1
2020-Aug-08 10:01 232 0 gusting 6 30.6
2020-Aug-08 09:47 223 0 gusting 4 30.6
2020-Aug-08 09:32 221 2 gusting 6 30.0
2020-Aug-08 09:16 202 1 gusting 6 29.4
2020-Aug-08 09:01 228 3 gusting 6 30.6
2020-Aug-08 08:45 165 0 gusting 4 30.6
2020-Aug-08 08:31 200 0 gusting 2 30.6
2020-Aug-08 08:16 190 28.9
2020-Aug-08 08:00 190 2 gusting 3 29.4
2020-Aug-08 07:45 196 2 gusting 4 28.9
2020-Aug-08 07:30 219 0 gusting 2 29.4
2020-Aug-08 07:15 220 0 gusting 1 28.9
2020-Aug-08 07:00 221 0 gusting 1 28.3
2020-Aug-08 06:45 221 0 gusting 2 27.2
2020-Aug-08 06:30 221 27.2
2020-Aug-08 06:16 221 25.6
2020-Aug-08 06:02 221 23.3
2020-Aug-08 05:46 221 21.7
2020-Aug-08 05:31 221 21.1
2020-Aug-08 05:16 221 20.0
2020-Aug-08 05:01 221 20.0
2020-Aug-08 04:45 221 20.0
2020-Aug-08 04:30 221 20.0
2020-Aug-08 04:16 221 20.0
2020-Aug-08 04:00 221 20.0
2020-Aug-08 03:45 221 20.0
2020-Aug-08 03:30 221 20.0
2020-Aug-08 03:15 221 20.6
2020-Aug-08 03:00 221 20.6
2020-Aug-08 02:45 221 20.6
2020-Aug-08 02:30 221 20.6
2020-Aug-08 02:15 221 20.6
2020-Aug-08 02:00 221 20.6
2020-Aug-08 01:45 221 21.1
2020-Aug-08 01:31 221 21.1
2020-Aug-08 01:01 221 21.1
2020-Aug-08 00:46 221 21.1
2020-Aug-08 00:31 221 21.1
2020-Aug-08 00:16 221 21.7
2020-Aug-08 00:01 221 21.7
2020-Aug-07 23:47 221 21.7
2020-Aug-07 23:31 221 21.7
2020-Aug-07 23:16 221 0 gusting 1 21.7
2020-Aug-07 23:02 220 22.2
2020-Aug-07 22:47 220 22.2
2020-Aug-07 22:31 220 22.2
2020-Aug-07 22:17 220 22.2
2020-Aug-07 22:01 220 22.8
2020-Aug-07 21:46 220 22.8
2020-Aug-07 21:32 219 22.8
2020-Aug-07 21:15 219 22.8
2020-Aug-07 21:01 219 23.3
2020-Aug-07 20:46 219 23.3
2020-Aug-07 20:30 219 23.9
2020-Aug-07 20:16 219 23.9
2020-Aug-07 20:01 218 24.4
2020-Aug-07 19:46 218 25.0
2020-Aug-07 19:31 217 25.6
2020-Aug-07 19:17 217 25.6
2020-Aug-07 19:01 217 0 gusting 5 26.1
2020-Aug-07 18:46 199 0 gusting 4 27.2
2020-Aug-07 18:31 209 1 gusting 4 27.2
2020-Aug-07 18:15 215 1 gusting 4 26.7
2020-Aug-07 18:01 211 27.8
2020-Aug-07 17:45 217 1 gusting 5 28.3
2020-Aug-07 17:31 220 2 gusting 6 28.9
2020-Aug-07 17:16 197 3 gusting 8 29.4
2020-Aug-07 17:00 220 3 gusting 9 29.4
2020-Aug-07 16:46 211 1 gusting 6 29.4
2020-Aug-07 16:30 229 3 gusting 8 30.0
2020-Aug-07 16:15 206 4 gusting 6 30.0
2020-Aug-07 15:45 214 4 gusting 10 30.6
2020-Aug-07 15:30 217 2 gusting 8 30.6
2020-Aug-07 15:16 215 2 gusting 7 30.6
2020-Aug-07 15:01 202 3 gusting 6 30.6
2020-Aug-07 14:46 172 3 gusting 11 30.0
2020-Aug-07 14:30 213 3 gusting 7 30.0
2020-Aug-07 14:16 209 4 gusting 10 30.0
2020-Aug-07 14:00 211 4 gusting 8 30.6
2020-Aug-07 13:45 210 4 gusting 9 30.6
2020-Aug-07 13:30 225 5 gusting 7 30.0
2020-Aug-07 13:16 227 1 gusting 8 30.0
2020-Aug-07 13:00 220 3 gusting 6 29.4
2020-Aug-07 12:45 221 3 gusting 6 29.4
2020-Aug-07 12:31 199 1 gusting 6 30.0
2020-Aug-07 12:16 210 1 gusting 7 30.6
2020-Aug-07 12:00 176 2 gusting 6 30.0
2020-Aug-07 11:45 202 1 gusting 4 30.0
2020-Aug-07 11:31 225 1 gusting 5 30.6
2020-Aug-07 11:15 143 3 gusting 6 28.9
2020-Aug-07 11:00 142 3 gusting 7 28.9
2020-Aug-07 10:45 229 3 gusting 7 30.0
2020-Aug-07 10:30 225 2 gusting 6 30.0
2020-Aug-07 10:15 189 3 gusting 8 29.4
2020-Aug-07 10:00 130 2 gusting 6 30.0
2020-Aug-07 09:47 211 2 gusting 6 30.6
2020-Aug-07 09:31 150 3 gusting 6 30.6
2020-Aug-07 09:17 141 2 gusting 6 30.6
2020-Aug-07 09:00 144 1 gusting 6 30.6
2020-Aug-07 08:47 150 2 gusting 4 31.1
2020-Aug-07 08:31 117 0 gusting 3 31.7
2020-Aug-07 08:15 201 1 gusting 3 30.0
2020-Aug-07 08:00 217 1 gusting 3 29.4